Погода в Птичьей

Украина / Ровненская область     50°18′08″N   25°37′07″E
темп.,
°C
ветер,
м/с
пор.,
м/с
влажн.,
%
обл.,
%
осадки,
мм/ч
давл.,
гПа
погр.,
м
19 апреля, пн
пн1900:00+9з2286100 0.3 101741
03:00+8сз2293100 0.4 101763
06:00+7ссз1296100 0.5 101672
09:00+8всв469294 0.8 1016390
12:00+9вюв348499 0.8 1016542
15:00+12ссв236752 1.4 1015747
18:00+11всв576387 0.6 1015772
21:00+9всв4976100 0.6 1016332
20 апреля, вт
вт2000:00+7всв3882100 0.0 1015188
03:00+5всв348838 0.1 101595
06:00+4св229157 0.0 101423
09:00+7ссв237793 0.0 1014311
12:00+11св336443 1.1 10131072
15:00+13ссв4455100 2.4 10111525
18:00+11ссв4462100 0.5 10111018
21:00+7св2380100 0.6 101236
21 апреля, ср
ср2100:00+6ссв118080 0.0 101310
03:00+6зюз118095 0.0 101213
06:00+5зюз359099 0.0 1012102
09:00+8зюз478093 0.0 1013355
12:00+12з676383 0.9 10121213
15:00+14зсз6853100 2.3 10111928
18:00+13з476120 0.4 1011926
21:00+9юз3480100 0.7 101354
22 апреля, чт
чт2200:00+7юз39886 0.6 1013184
03:00+6юз4108856 0.6 1013205
06:00+6ююз499199 0.0 1013182
09:00+10юз588384 0.1 1014473
12:00+10юз588595 0.5 1014559
15:00+14юз6863100 0.9 10131417
18:00+13з477023 2.1 1013962
21:00+9зюз5108737 3.6 1014364
23 апреля, пт
пт2300:00+6зсз3695100 0.0 1015200
03:00+7зсз2395100 2.4 1015192
06:00+5сз5694100 4.0 1015673
09:00+4зсз3691100 7.3 1017496
12:00+8з5861100 0.3 10171729
15:00+9зсз895888 0.5 10181751
18:00+8сз786023 0.1 10191622
21:00+4зсз49765 0.1 1020252